Weather History for KCGZ - October, 2012

Change the Weather History Date:

Sunday, October 21, 2012

  Actual Average (KPHX) Record (KPHX)
Temperature  
Mean Temperature 74 °F 75 °F  
Max Temperature 87 °F 87 °F 103 °F (2003)
Min Temperature 60 °F 63 °F 39 °F (1949)
Degree Days  
Heating Degree Days 0 0  
Month to date heating degree days 0  
Since 1 July heating degree days 0  
Cooling Degree Days 8 10  
Month to date cooling degree days 288  
Year to date cooling degree days 4457  
Growing Degree Days 24 (Base 50)    
Moisture  
Dew Point 44 °F    
Average Humidity 36    
Maximum Humidity 52    
Minimum Humidity 22    
Precipitation  
Precipitation 0.00 in 0.02 in 0.40 in (2000)
Month to date precipitation 0.40  
Year to date precipitation 6.32  
Snow  
Snow 0.00 in - - ()
Month to date snowfall  
Year to date snowfall  
Since 1 July snowfall  
Snow Depth -    
Sea Level Pressure  
Sea Level Pressure 29.84 in    
Wind  
Wind Speed 3 mph (SSW)    
Max Wind Speed 22 mph    
Max Gust Speed 26 mph    
Visibility 10 miles    
Events      
T = Trace of Precipitation, MM = Missing Value Source: NWS Daily Summary

Daily Weather History Graph

Daily Weather History Graph

Search for Another Location

Airport or City:

Trip Planner

Search our weather history database for the weather conditions in past years. The results will help you decide how hot, cold, wet, or windy it might be!

Date:

Astronomy

Oct. 21, 2012 Rise Set
Actual Time 6:36 AM MST 5:46 PM MST
Civil Twilight 6:11 AM MST 6:11 PM MST
Nautical Twilight 5:42 AM MST 6:40 PM MST
Astronomical Twilight 5:13 AM MST 7:08 PM MST
Moon 12:53 PM MST (10/21) 11:49 PM MST (10/21)
Length of Visible Light 12h 00m
Length of Day
11h 09m
Waxing Crescent, 46% of the Moon is Illuminated
Oct 21
Waxing Crescent
Oct 21
First Quarter
Oct 29
Full
Nov 6
Last Quarter
Nov 13
New

Hourly Weather History & Observations

Time (MST) Temp. Dew Point Humidity Pressure Visibility Wind Dir Wind Speed Gust Speed Precip Events Conditions
12:15 AM 69.8 °F 42.8 °F 38% 29.81 in 10.0 mi Calm Calm - N/A   Clear
12:35 AM 69.8 °F 42.8 °F 38% 29.82 in 10.0 mi Calm Calm - N/A   Clear
12:55 AM 69.8 °F 42.8 °F 38% 29.82 in 10.0 mi Calm Calm - N/A   Clear
1:15 AM 69.8 °F 42.8 °F 38% 29.83 in 10.0 mi Calm Calm - N/A   Clear
1:35 AM 66.2 °F 42.8 °F 43% 29.83 in 10.0 mi Calm Calm - N/A   Clear
1:55 AM 64.4 °F 41.0 °F 42% 29.83 in 10.0 mi Calm Calm - N/A   Clear
2:15 AM 66.2 °F 41.0 °F 40% 29.83 in 10.0 mi Calm Calm - N/A   Clear
2:35 AM 64.4 °F 39.2 °F 40% 29.83 in 10.0 mi Calm Calm - N/A   Clear
2:55 AM 64.4 °F 39.2 °F 40% 29.83 in 10.0 mi Calm Calm - N/A   Clear
3:15 AM 68.0 °F 41.0 °F 37% 29.83 in 10.0 mi Calm Calm - N/A   Clear
3:35 AM 66.2 °F 39.2 °F 37% 29.83 in 10.0 mi Calm Calm - N/A   Clear
3:55 AM 68.0 °F 41.0 °F 37% 29.83 in 10.0 mi Calm Calm - N/A   Clear
4:15 AM 69.8 °F 41.0 °F 35% 29.83 in 10.0 mi Calm Calm - N/A   Clear
4:35 AM 66.2 °F 39.2 °F 37% 29.83 in 10.0 mi Calm Calm - N/A   Clear
4:55 AM 62.6 °F 39.2 °F 42% 29.84 in 10.0 mi Calm Calm - N/A   Clear
5:15 AM 60.8 °F 39.2 °F 45% 29.84 in 10.0 mi Calm Calm - N/A   Clear
5:35 AM 62.6 °F 39.2 °F 42% 29.85 in 10.0 mi Calm Calm - N/A   Clear
5:55 AM 64.4 °F 39.2 °F 40% 29.85 in 10.0 mi Calm Calm - N/A   Clear
6:15 AM 62.6 °F 39.2 °F 42% 29.85 in 10.0 mi Calm Calm - N/A   Clear
6:35 AM 62.6 °F 39.2 °F 42% 29.85 in 10.0 mi Calm Calm - N/A   Clear
6:55 AM 60.8 °F 39.2 °F 45% 29.86 in 10.0 mi Calm Calm - N/A   Clear
7:15 AM 64.4 °F 42.8 °F 45% 29.86 in 10.0 mi Calm Calm - N/A   Clear
7:35 AM 66.2 °F 42.8 °F 43% 29.87 in 10.0 mi Calm Calm - N/A   Clear
7:55 AM 66.2 °F 44.6 °F 46% 29.87 in 10.0 mi Calm Calm - N/A   Clear
8:15 AM 68.0 °F 44.6 °F 43% 29.88 in 10.0 mi Calm Calm - N/A   Clear
8:35 AM 69.8 °F 44.6 °F 40% 29.88 in 10.0 mi Calm Calm - N/A   Clear
8:55 AM 69.8 °F 44.6 °F 40% 29.88 in 10.0 mi Calm Calm - N/A   Clear
9:15 AM 73.4 °F 44.6 °F 36% 29.88 in 10.0 mi Calm Calm - N/A   Clear
9:35 AM 75.2 °F 44.6 °F 34% 29.88 in 10.0 mi Calm Calm - N/A   Clear
9:55 AM 77.0 °F 46.4 °F 34% 29.88 in 10.0 mi Calm Calm - N/A   Clear
10:15 AM 80.6 °F 46.4 °F 30% 29.87 in 10.0 mi SSE 13.8 mph 19.6 mph N/A   Clear
10:35 AM 82.4 °F 44.6 °F 26% 29.87 in 10.0 mi SSE 13.8 mph 20.7 mph N/A   Clear
10:55 AM 82.4 °F 44.6 °F 26% 29.86 in 10.0 mi South 13.8 mph 26.5 mph N/A   Clear
11:15 AM 84.2 °F 44.6 °F 25% 29.85 in 10.0 mi South 17.3 mph 21.9 mph N/A   Clear
11:35 AM 82.4 °F 44.6 °F 26% 29.86 in 10.0 mi South 11.5 mph 21.9 mph N/A   Clear
11:55 AM 82.4 °F 44.6 °F 26% 29.85 in 10.0 mi SSE 11.5 mph - N/A   Clear
12:15 PM 84.2 °F 44.6 °F 25% 29.84 in 10.0 mi South 10.4 mph 18.4 mph N/A   Clear
12:35 PM 84.2 °F 42.8 °F 23% 29.83 in 10.0 mi SSW 8.1 mph 16.1 mph N/A   Clear
12:55 PM 84.2 °F 44.6 °F 25% 29.82 in 10.0 mi South 9.2 mph 19.6 mph N/A   Clear
1:15 PM 86.0 °F 44.6 °F 23% 29.81 in 8.0 mi SSW 16.1 mph 23.0 mph N/A   Clear
1:35 PM 87.8 °F 44.6 °F 22% 29.80 in 10.0 mi SW 13.8 mph 24.2 mph N/A   Clear
1:55 PM 86.0 °F 44.6 °F 23% 29.80 in 10.0 mi SSW 12.7 mph 26.5 mph N/A   Clear
2:15 PM 86.0 °F 44.6 °F 23% 29.81 in 10.0 mi SSW 12.7 mph 25.3 mph N/A   Clear
2:35 PM 86.0 °F 44.6 °F 23% 29.80 in 10.0 mi SSW 10.4 mph 18.4 mph N/A   Clear
2:55 PM 86.0 °F 44.6 °F 23% 29.80 in 10.0 mi SW 16.1 mph 21.9 mph N/A   Clear
3:15 PM 86.0 °F 46.4 °F 25% 29.80 in 10.0 mi South 21.9 mph 26.5 mph N/A   Clear
3:35 PM 84.2 °F 44.6 °F 25% 29.80 in 10.0 mi South 17.3 mph 24.2 mph N/A   Clear
3:55 PM 84.2 °F 44.6 °F 25% 29.81 in 10.0 mi South 13.8 mph 26.5 mph N/A   Clear
4:15 PM 84.2 °F 46.4 °F 27% 29.81 in 10.0 mi SSW 16.1 mph - N/A   Clear
4:35 PM 84.2 °F 44.6 °F 25% 29.81 in 10.0 mi SSW 10.4 mph - N/A   Clear
4:55 PM 82.4 °F 46.4 °F 28% 29.81 in 10.0 mi SSW 11.5 mph 16.1 mph N/A   Clear
5:15 PM 82.4 °F 46.4 °F 28% 29.81 in 10.0 mi SSW 10.4 mph 18.4 mph N/A   Clear
5:35 PM 80.6 °F 44.6 °F 28% 29.81 in 10.0 mi SW 11.5 mph - N/A   Clear
5:55 PM 80.6 °F 44.6 °F 28% 29.82 in 10.0 mi SW 9.2 mph - N/A   Clear
6:15 PM 78.8 °F 44.6 °F 30% 29.82 in 10.0 mi SW 8.1 mph - N/A   Clear
6:35 PM 77.0 °F 44.6 °F 32% 29.83 in 10.0 mi SW 5.8 mph - N/A   Clear
6:55 PM 75.2 °F 44.6 °F 34% 29.83 in 10.0 mi Calm Calm - N/A   Clear
7:15 PM 75.2 °F 44.6 °F 34% 29.83 in 10.0 mi Calm Calm - N/A   Clear
7:35 PM 73.4 °F 46.4 °F 38% 29.83 in 10.0 mi SW 4.6 mph - N/A   Clear
7:55 PM 73.4 °F 48.2 °F 41% 29.83 in 10.0 mi Calm Calm - N/A   Clear
8:15 PM 73.4 °F 48.2 °F 41% 29.83 in 10.0 mi Calm Calm - N/A   Clear
8:35 PM 71.6 °F 48.2 °F 43% 29.83 in 10.0 mi Calm Calm - N/A   Clear
8:55 PM 71.6 °F 48.2 °F 43% 29.84 in 10.0 mi West 3.5 mph - N/A   Clear
9:15 PM 71.6 °F 48.2 °F 43% 29.85 in 10.0 mi Calm Calm - N/A   Clear
9:35 PM 69.8 °F 48.2 °F 46% 29.85 in 10.0 mi Calm Calm - N/A   Clear
9:55 PM 71.6 °F 48.2 °F 43% 29.86 in 10.0 mi Calm Calm - N/A   Clear
10:15 PM 69.8 °F 48.2 °F 46% 29.86 in 10.0 mi Calm Calm - N/A   Clear
10:55 PM 66.2 °F 46.4 °F 49% 29.86 in 10.0 mi Calm Calm - N/A   Clear
11:15 PM 64.4 °F 44.6 °F 49% 29.86 in 10.0 mi Calm Calm - N/A   Clear
11:35 PM 64.4 °F 46.4 °F 52% 29.87 in 10.0 mi Calm Calm - N/A   Clear
11:55 PM 64.4 °F 46.4 °F 52% 29.87 in 10.0 mi Calm Calm - N/A   Clear